Location: B�rgermoos
(47.6500°N, 9.0667°E)
Time: 08:46:29
(UTC+00:00)

Okean 2 Rocket - Pass Details

Date: 18 September 2020
Orbit: 616 x 642 km, 82.5° (Epoch: 24 October)

Event Time Altitude Azimuth Distance (km) Brightness Sun altitude
Rises 18:03:22 0° 154° (SSE) 2,934 6.2 -6.6°
Reaches altitude 10° 18:05:56 10° 140° (SE) 2,028 5.3 -7.0°
Maximum altitude 18:09:31 24° 87° (E) 1,333 4.2 -7.6°
Drops below altitude 10° 18:13:06 10° 35° (NE) 2,030 5.5 -8.2°
Sets 18:15:40 0° 21° (NNE) 2,939 6.4 -8.6°
